Location: Krakow
(50.0830°N, 19.9170°E)
Time: 18:11:51
(UTC+02:00)

A-11 Canister half - Visible Passes

Search period start: 26 May 2024 00:00
Search period end: 05 June 2024 00:00
Orbit: 1514 x 1685 km, 47.2° (Epoch: 25 May)

Date Brightness Start Highest point End Pass type
(mag) Time Alt. Az. Time Alt. Az. Time Alt. Az.
26 May 9.4 01:42:35 23° SSW 01:47:59 43° SE 01:56:34 10° E visible
26 May 9.0 03:42:40 10° WSW 03:52:06 72° S 04:01:18 10° E visible
26 May 10.4 23:21:57 14° SE 23:22:12 14° SE 23:26:18 10° E visible
27 May 9.4 01:20:05 25° SSW 01:25:05 41° SE 01:33:35 10° E visible
27 May 9.0 03:19:42 10° WSW 03:29:08 71° SSE 03:38:21 10° E visible
27 May 10.4 22:59:20 12° SE 22:59:21 12° SE 23:02:48 10° ESE visible
28 May 9.4 00:57:26 25° SSW 01:02:10 40° SE 01:10:36 10° E visible
28 May 9.0 02:56:43 10° WSW 03:06:11 70° SSE 03:15:23 10° E visible
28 May 10.5 22:36:32 11° ESE 22:36:32 11° ESE 22:39:04 10° ESE visible
29 May 9.5 00:34:37 25° S 00:39:15 38° SE 00:47:36 10° E visible
29 May 9.0 02:33:45 10° WSW 02:43:13 69° SSE 02:52:26 10° E visible
29 May 10.5 22:13:29 10° ESE 22:13:41 10° ESE 22:14:34 10° ESE visible
30 May 9.5 00:11:33 23° S 00:16:21 36° SE 00:24:37 10° E visible
30 May 9.0 02:10:47 10° WSW 02:20:16 67° SSE 02:29:28 10° E visible
30 May 9.5 23:48:00 20° S 23:53:26 34° SE 00:01:37 10° E visible
31 May 9.0 01:47:48 10° WSW 01:57:19 66° SSE 02:06:31 10° E visible
31 May 9.0 03:52:25 10° W 04:01:53 75° S 04:11:06 10° ESE visible
31 May 9.6 23:23:15 13° SSW 23:30:32 33° SE 23:38:36 10° E visible
01 Jun 9.0 01:24:50 10° WSW 01:34:21 65° SSE 01:43:34 10° E visible
01 Jun 9.0 03:29:25 10° W 03:38:56 75° S 03:48:10 10° ESE visible
01 Jun 9.6 22:59:28 10° SSW 23:07:38 31° SE 23:15:35 10° E visible
02 Jun 9.0 01:01:53 10° WSW 01:11:24 63° SSE 01:20:36 10° E visible
02 Jun 9.0 03:06:25 10° W 03:15:58 76° S 03:25:13 10° E visible
02 Jun 9.6 22:36:42 10° SSW 22:44:45 30° SE 22:52:33 10° E visible
03 Jun 9.0 00:38:55 10° SW 00:48:26 62° SSE 00:57:39 10° E visible
03 Jun 9.0 02:43:25 10° W 02:52:59 76° S 03:02:16 10° E visible
03 Jun 9.7 22:13:58 10° S 22:21:51 28° SE 22:29:31 10° E visible
04 Jun 9.0 00:15:59 10° SW 00:25:29 60° SSE 00:34:41 10° E visible
04 Jun 8.9 02:20:25 10° W 02:30:01 76° S 02:39:19 10° E visible
04 Jun 9.8 21:51:15 10° S 21:58:58 27° SE 22:06:28 10° E visible
